Zurück zum Katalog

STARLINK-5996

AktivKommunikationVLEO
NORAD 57227·PAYLOAD·🇺🇸 United States

Gestartet Jul 7, 2023 von Vandenberg Space Force Base

Loading…

Nächste Überflüge (nächste 24 Stunden)

TLE

AktuellSource: CelesTrak SupGP

Epoche: Sep 15, 2026, 01:52 UTC

1 57227C 23094K   26258.07826389 -.00055486  00000+0 -20095-2 0  2582
2 57227  43.0018  44.3849 0001951 259.1317  43.2532 15.27608303    12

Verfolge STARLINK-5996 in Echtzeit mit AllMySat

Download on the App Store